Weather History for Burlington, CO

Change the Weather History Date:

Saturday, November 24, 2012

  Actual Average Record
Temperature  
Mean Temperature 52 °F 34 °F  
Max Temperature 75 °F 48 °F 75 °F (2012)
Min Temperature 29 °F 20 °F -2 °F (1918)
Degree Days  
Heating Degree Days 14    
Growing Degree Days 2 (Base 50)    
Moisture  
Dew Point 13 °F    
Average Humidity 27    
Maximum Humidity 49    
Minimum Humidity 8    
Precipitation  
Precipitation 0.00 in 0.02 in 0.16 in (1992)
Month to date precipitation T 0.53  
Year to date precipitation 10.56 16.97  
Sea Level Pressure  
Sea Level Pressure 29.98 in    
Wind  
Wind Speed 10 mph (West)    
Max Wind Speed 16 mph    
Max Gust Speed 21 mph    
Visibility 10 miles    
Events      
T = Trace of Precipitation, MM = Missing Value Source: NWS Daily Summary

Daily Weather History Graph

Daily Weather History Graph

Search for Another Location

Airport:

Trip Planner

Search our weather history database for the weather conditions in past years. The results will help you decide how hot, cold, wet, or windy it might be!

Date:

Astronomy

Nov. 24, 2012 Rise Set
Actual Time 6:43 AM MST 4:28 PM MST
Civil Twilight 6:13 AM MST 4:57 PM MST
Nautical Twilight 5:40 AM MST 5:30 PM MST
Astronomical Twilight 5:08 AM MST 6:02 PM MST
Moon 2:13 PM MST (11/24) 3:03 AM MST (11/24)
Length of Visible Light 10h 44m
Length of Day
9h 45m
Waxing Gibbous, 87% of the Moon is Illuminated
Nov 24
Waxing Gibbous
Nov 28
Full
Dec 6
Last Quarter
Dec 13
New
Dec 19
First Quarter

Hourly Weather History & Observations

Time (MST) Temp. Windchill Dew Point Humidity Pressure Visibility Wind Dir Wind Speed Gust Speed Precip Events Conditions
12:53 AM 33.1 °F 24.9 °F 12.9 °F 43% 30.19 in 10.0 mi WSW 10.4 mph - N/A   Clear
1:53 AM 30.0 °F 22.4 °F 12.9 °F 49% 30.18 in 10.0 mi WSW 8.1 mph - N/A   Clear
2:53 AM 35.1 °F 27.4 °F 15.1 °F 44% 30.14 in 10.0 mi West 10.4 mph - N/A   Clear
3:53 AM 41.0 °F 32.8 °F 16.0 °F 36% 30.10 in 10.0 mi WSW 16.1 mph - N/A   Clear
4:53 AM 41.0 °F 33.5 °F 15.1 °F 35% 30.10 in 10.0 mi WSW 13.8 mph - N/A   Clear
5:53 AM 39.9 °F 32.9 °F 15.1 °F 36% 30.10 in 10.0 mi WSW 11.5 mph - N/A   Clear
6:53 AM 33.1 °F 24.4 °F 15.1 °F 48% 30.12 in 10.0 mi West 11.5 mph - N/A   Clear
7:53 AM 36.0 °F 28.0 °F 16.0 °F 44% 30.11 in 10.0 mi West 11.5 mph - N/A   Clear
8:53 AM 54.0 °F - 17.1 °F 23% 30.04 in 10.0 mi WSW 12.7 mph - N/A   Clear
9:53 AM 64.0 °F - 16.0 °F 16% 30.00 in 10.0 mi SW 12.7 mph - N/A   Clear
10:53 AM 66.0 °F - 16.0 °F 15% 29.96 in 10.0 mi SW 9.2 mph - N/A   Clear
11:53 AM 70.0 °F - 12.0 °F 11% 29.91 in 10.0 mi WSW 9.2 mph - N/A   Clear
12:53 PM 73.9 °F - 8.1 °F 8% 29.87 in 10.0 mi WSW 10.4 mph - N/A   Clear
1:53 PM 73.9 °F - 7.0 °F 8% 29.85 in 10.0 mi West 11.5 mph 20.7 mph N/A   Clear
2:53 PM 73.0 °F - 10.0 °F 9% 29.83 in 10.0 mi SW 8.1 mph - N/A   Clear
3:53 PM 64.0 °F - 12.9 °F 14% 29.83 in 10.0 mi SSW 9.2 mph - N/A   Clear
4:53 PM 57.0 °F - 10.0 °F 15% 29.86 in 10.0 mi NW 9.2 mph - N/A   Clear
5:53 PM 46.0 °F 41.4 °F 8.1 °F 21% 29.90 in 10.0 mi WNW 9.2 mph - N/A   Clear
6:53 PM 45.0 °F 40.1 °F 10.0 °F 24% 29.92 in 10.0 mi West 9.2 mph - N/A   Clear
7:53 PM 46.9 °F - 10.9 °F 23% 29.90 in 10.0 mi NW 9.2 mph - N/A   Clear
8:53 PM 42.1 °F 39.2 °F 10.9 °F 28% 29.89 in 10.0 mi West 4.6 mph - N/A   Clear
9:53 PM 35.1 °F 28.6 °F 10.0 °F 35% 29.89 in 10.0 mi West 8.1 mph - N/A   Clear
10:53 PM 35.1 °F 28.6 °F 10.9 °F 37% 29.90 in 10.0 mi West 8.1 mph - N/A   Clear
11:53 PM 39.0 °F 32.8 °F 12.9 °F 34% 29.88 in 10.0 mi NNW 9.2 mph - N/A   Clear